• In Hungary
  • List of Countries
  • For 7 days
  • Water Temperature
  • Satellite Maps
  • Weather Map
  • News
  • Weather Widgets
  • user-avatar
    Login

    Hourly Weather Novokrugloe

    Today, 21 September, Friday

    Time Temperature Precipitation Wind Pressure Humidity
    00:00 +16°C° 0 mm 3 mps 750 mmHg 86%
    01:00 +16°C° 0 mm 2 mps 750 mmHg 87%
    02:00 +15°C° 0 mm 2 mps 750 mmHg 88%
    03:00 +15°C° 0 mm 2 mps 751 mmHg 90%
    04:00 +14°C° 0 mm 2 mps 751 mmHg 90%
    05:00 +14°C° 0 mm 2 mps 751 mmHg 90%
    06:00 +14°C° 0 mm 2 mps 752 mmHg 90%
    07:00 +15°C° 0 mm 2 mps 752 mmHg 84%
    08:00 +17°C° 0 mm 2 mps 752 mmHg 77%
    09:00 +18°C° 0 mm 2 mps 753 mmHg 71%
    10:00 +20°C° 0 mm 2 mps 753 mmHg 67%
    11:00 +21°C° 0 mm 2 mps 753 mmHg 62%
    12:00 +23°C° 0 mm 2 mps 753 mmHg 57%
    13:00 +24°C° 0 mm 2 mps 753 mmHg 55%
    14:00 +25°C° 0 mm 2 mps 753 mmHg 53%
    15:00 +25°C° 0 mm 2 mps 753 mmHg 51%
    16:00 +24°C° 0 mm 1 mps 753 mmHg 56%
    17:00 +23°C° 0 mm 1 mps 753 mmHg 60%
    18:00 +20°C° 0 mm 0 mps 753 mmHg 65%
    19:00 +21°C° 0 mm 1 mps 753 mmHg 67%
    20:00 +20°C° 0 mm 1 mps 753 mmHg 69%
    21:00 +20°C° 0 mm 1 mps 753 mmHg 71%
    22:00 +19°C° 0 mm 1 mps 753 mmHg 73%
    23:00 +19°C° 0 mm 1 mps 753 mmHg 75%

    Tomorrow, 22 September, Saturday

    Time Temperature Precipitation Wind Pressure Humidity
    00:00 +17°C° 0 mm 2 mps 753 mmHg 77%
    01:00 +17°C° 0 mm 2 mps 754 mmHg 79%
    02:00 +17°C° 0 mm 2 mps 754 mmHg 80%
    03:00 +16°C° 0 mm 2 mps 754 mmHg 82%
    04:00 +16°C° 0 mm 2 mps 754 mmHg 83%
    05:00 +16°C° 0 mm 2 mps 754 mmHg 84%
    06:00 +15°C° 0 mm 2 mps 754 mmHg 85%
    07:00 +17°C° 0 mm 3 mps 754 mmHg 79%
    08:00 +18°C° 0 mm 3 mps 754 mmHg 73%
    09:00 +20°C° 0 mm 3 mps 754 mmHg 67%
    10:00 +21°C° 0 mm 4 mps 754 mmHg 62%
    11:00 +23°C° 0 mm 4 mps 753 mmHg 57%
    12:00 +25°C° 0 mm 4 mps 753 mmHg 52%
    13:00 +25°C° 0 mm 4 mps 753 mmHg 51%
    14:00 +26°C° 0 mm 4 mps 753 mmHg 50%
    15:00 +26°C° 0 mm 4 mps 752 mmHg 48%
    16:00 +25°C° 0 mm 4 mps 752 mmHg 53%
    17:00 +22°C° 0 mm 3 mps 752 mmHg 58%
    18:00 +21°C° 0 mm 3 mps 751 mmHg 63%
    19:00 +20°C° 0 mm 3 mps 751 mmHg 64%
    20:00 +19°C° 0 mm 3 mps 751 mmHg 66%
    21:00 +19°C° 0 mm 4 mps 751 mmHg 68%
    22:00 +18°C° 0 mm 4 mps 751 mmHg 68%
    23:00 +18°C° 0 mm 4 mps 751 mmHg 68%

    Day after tomorrow, 23 September, Sunday

    Time Temperature Precipitation Wind Pressure Humidity
    00:00 +18°C° 0 mm 4 mps 750 mmHg 68%
    01:00 +17°C° 0 mm 5 mps 750 mmHg 68%
    02:00 +17°C° 0 mm 5 mps 750 mmHg 68%
    03:00 +16°C° 0 mm 5 mps 749 mmHg 68%
    04:00 +16°C° 0 mm 5 mps 749 mmHg 68%
    05:00 +16°C° 0 mm 5 mps 748 mmHg 68%
    06:00 +15°C° 0 mm 5 mps 748 mmHg 68%
    07:00 +16°C° 0 mm 6 mps 747 mmHg 65%
    08:00 +17°C° 0 mm 7 mps 747 mmHg 62%
    09:00 +18°C° 0 mm 7 mps 746 mmHg 59%
    10:00 +21°C° 0 mm 8 mps 746 mmHg 55%
    11:00 +23°C° 0 mm 8 mps 745 mmHg 50%
    12:00 +24°C° 0 mm 9 mps 744 mmHg 46%
    13:00 +24°C° 0.1 mm 8 mps 744 mmHg 48%
    14:00 +23°C° 0.1 mm 7 mps 744 mmHg 51%
    15:00 +23°C° 0.1 mm 6 mps 744 mmHg 53%
    16:00 +20°C° 1.3 mm 6 mps 744 mmHg 63%
    17:00 +16°C° 1.3 mm 6 mps 744 mmHg 72%
    18:00 +13°C° 1.3 mm 6 mps 744 mmHg 82%
    19:00 +11°C° 1.6 mm 6 mps 745 mmHg 82%
    20:00 +10°C° 1.6 mm 5 mps 745 mmHg 83%
    21:00 +10°C° 1.6 mm 5 mps 745 mmHg 83%
    22:00 +11°C° 0.6 mm 4 mps 745 mmHg 83%
    23:00 +11°C° 0.6 mm 4 mps 746 mmHg 83%

    24 September, Monday

    Time Temperature Precipitation Wind Pressure Humidity
    00:00 +11°C° 0.6 mm 3 mps 746 mmHg 82%
    01:00 +11°C° 0 mm 3 mps 746 mmHg 83%
    02:00 +10°C° 0 mm 3 mps 746 mmHg 84%
    03:00 +10°C° 0 mm 3 mps 746 mmHg 85%
    04:00 +10°C° 0 mm 3 mps 746 mmHg 87%
    05:00 +9°C° 0 mm 3 mps 746 mmHg 89%
    06:00 +9°C° 0 mm 3 mps 746 mmHg 90%
    07:00 +10°C° 0 mm 4 mps 747 mmHg 86%
    08:00 +11°C° 0 mm 4 mps 747 mmHg 82%
    09:00 +11°C° 0 mm 4 mps 747 mmHg 77%
    10:00 +13°C° 0 mm 4 mps 747 mmHg 70%
    11:00 +14°C° 0 mm 4 mps 747 mmHg 63%
    12:00 +16°C° 0 mm 3 mps 747 mmHg 56%
    13:00 +16°C° 0 mm 3 mps 746 mmHg 54%
    14:00 +17°C° 0 mm 3 mps 746 mmHg 52%
    15:00 +17°C° 0 mm 3 mps 746 mmHg 50%
    16:00 +16°C° 0 mm 3 mps 746 mmHg 53%
    17:00 +15°C° 0 mm 2 mps 745 mmHg 57%
    18:00 +14°C° 0 mm 2 mps 745 mmHg 60%
    19:00 +13°C° 0 mm 3 mps 744 mmHg 59%
    20:00 +13°C° 0 mm 4 mps 744 mmHg 58%
    21:00 +13°C° 0 mm 5 mps 743 mmHg 58%
    22:00 +13°C° 0.4 mm 5 mps 743 mmHg 62%
    23:00 +11°C° 0.4 mm 6 mps 742 mmHg 66%

    25 September, Tuesday

    Time Temperature Precipitation Wind Pressure Humidity
    00:00 +11°C° 0.4 mm 7 mps 741 mmHg 70%
    01:00 +10°C° 1.5 mm 7 mps 740 mmHg 74%
    02:00 +10°C° 1.5 mm 8 mps 739 mmHg 78%
    03:00 +10°C° 1.5 mm 9 mps 738 mmHg 83%
    04:00 +10°C° 0.2 mm 9 mps 737 mmHg 83%
    05:00 +10°C° 0.2 mm 9 mps 737 mmHg 83%
    06:00 +10°C° 0.2 mm 9 mps 736 mmHg 83%
    07:00 +10°C° 0.1 mm 9 mps 736 mmHg 79%
    08:00 +10°C° 0.1 mm 9 mps 735 mmHg 76%
    09:00 +10°C° 0.1 mm 9 mps 735 mmHg 72%
    10:00 +10°C° 0.1 mm 9 mps 735 mmHg 72%
    11:00 +10°C° 0.1 mm 9 mps 735 mmHg 71%
    12:00 +9°C° 0.1 mm 10 mps 735 mmHg 70%
    13:00 +8°C° 0.2 mm 10 mps 734 mmHg 71%
    14:00 +8°C° 0.2 mm 10 mps 734 mmHg 71%
    15:00 +8°C° 0.2 mm 10 mps 734 mmHg 72%
    16:00 +8°C° 0.2 mm 9 mps 734 mmHg 74%
    17:00 +7°C° 0.2 mm 9 mps 734 mmHg 75%
    18:00 +7°C° 0.2 mm 9 mps 734 mmHg 77%
    19:00 +7°C° 0.3 mm 9 mps 734 mmHg 79%
    20:00 +7°C° 0.3 mm 9 mps 734 mmHg 81%
    21:00 +7°C° 0.3 mm 8 mps 734 mmHg 83%
    22:00 +7°C° 0.2 mm 9 mps 735 mmHg 83%
    23:00 +7°C° 0.2 mm 9 mps 735 mmHg 83%

    26 September, Wednesday

    Time Temperature Precipitation Wind Pressure Humidity
    00:00 +7°C° 0.2 mm 9 mps 735 mmHg 83%
    01:00 +6°C° 0.3 mm 9 mps 736 mmHg 83%
    02:00 +6°C° 0.3 mm 9 mps 737 mmHg 83%
    03:00 +6°C° 0.3 mm 8 mps 738 mmHg 83%
    04:00 +6°C° 0.2 mm 8 mps 739 mmHg 83%
    05:00 +6°C° 0.2 mm 8 mps 740 mmHg 82%
    06:00 +6°C° 0.2 mm 8 mps 740 mmHg 82%
    07:00 +6°C° 0 mm 8 mps 741 mmHg 82%
    08:00 +6°C° 0 mm 8 mps 742 mmHg 81%
    09:00 +6°C° 0 mm 8 mps 743 mmHg 80%
    10:00 +6°C° 0.1 mm 7 mps 744 mmHg 80%
    11:00 +6°C° 0.1 mm 7 mps 745 mmHg 80%
    12:00 +8°C° 0.1 mm 7 mps 746 mmHg 79%
    13:00 +8°C° 0.1 mm 7 mps 746 mmHg 79%
    14:00 +8°C° 0.1 mm 6 mps 747 mmHg 79%
    15:00 +8°C° 0.1 mm 6 mps 748 mmHg 79%
    16:00 +8°C° 0 mm 6 mps 749 mmHg 79%
    17:00 +8°C° 0 mm 5 mps 749 mmHg 80%
    18:00 +8°C° 0 mm 4 mps 750 mmHg 80%
    19:00 +8°C° 0 mm 4 mps 751 mmHg 81%
    20:00 +7°C° 0 mm 4 mps 751 mmHg 81%
    21:00 +7°C° 0 mm 4 mps 752 mmHg 82%
    22:00 +7°C° 0 mm 4 mps 752 mmHg 82%
    23:00 +6°C° 0 mm 4 mps 753 mmHg 82%
    Show more